#timestamp,LO_Frequency,Hit 
1503136815.5,286046997.6,N
1503136835.3,286046996.5,N
1503136855.1,286046997.4,N
1503136875.9,286046995.1,P
1503136895.7,286047001.0,N
1503136915.5,286046999.1,N
1503136935.3,286047000.5,N
1503136955.2,286047002.2,N
1503136975.0,286046999.7,N
1503136975.9,286046999.7,N
1503136995.7,286047002.3,N
1503137015.6,286046999.9,N
1503137035.4,286047000.4,N
1503137055.2,286047001.6,N
1503137075.1,286047001.5,N
1503137076.0,286047001.5,N
1503137095.8,286047000.0,N
1503137115.6,286047003.6,N
1503137135.5,286047003.8,N
1503137155.3,286047004.0,N
1503137175.1,286047003.8,N
1503137195.9,286047006.0,N
1503137215.7,286047003.2,N
1503137235.5,286047004.1,N
1503137255.3,286047001.5,N
1503137275.2,286047001.7,N
1503137295.0,286047001.5,N
1503137295.9,286047001.5,N
1503137315.7,286047002.2,N
1503137335.6,286047000.7,N
1503137355.4,286047001.4,N
1503137375.2,286047002.7,N
1503137395.1,286047000.4,N
1503137396.0,286047000.4,N
1503137415.8,286047002.7,N
1503137435.6,286047002.2,N
1503137455.5,286047002.1,N
1503137475.3,286047001.2,N
1503137495.1,286047000.7,N
1503137515.9,286047001.0,N
1503137535.7,286046999.2,N
1503137555.5,286046998.3,N
1503137575.3,286046998.6,N
1503137595.2,286046998.2,N
1503137615.0,286047000.8,N
1503137615.9,286047000.8,N
1503137635.7,286047000.1,N
1503137655.6,286047000.4,N
1503137675.4,286047000.7,N
1503137695.2,286047001.1,N
1503137715.1,286047000.7,N
1503137716.0,286047000.7,N
1503137735.8,286046998.4,N
1503137755.6,286047001.0,N
1503137775.5,286047001.0,N
1503137795.3,286046998.4,N
1503137815.1,286046998.8,N
1503137835.9,286046998.3,N
1503137855.7,286047000.3,N
1503137875.5,286046998.2,N
1503137895.3,286047000.7,N
1503137915.2,286047000.5,N
1503137935.0,286046998.3,N
1503137935.9,286046998.3,N
1503137955.7,286046998.6,N
1503137975.6,286046999.1,N
1503137995.4,286046998.1,N
1503138015.2,286046998.5,N
1503138035.1,286046998.9,N
1503138036.0,286046998.9,N
1503138055.8,286046996.9,N
1503138075.6,286046997.3,N
1503138095.5,286046997.2,N
1503138115.3,286046997.3,N
1503138135.1,286046995.6,P
1503138155.9,286046999.3,N
1503138175.7,286047000.4,N
1503138195.5,286047000.6,N
1503138215.4,286046998.4,N
1503138235.2,286046998.2,N
1503138255.0,286046998.5,N
1503138255.9,286046998.5,N
1503138275.8,286046998.1,N
1503138295.6,286047001.2,N
1503138315.4,286046998.6,N
1503138335.3,286046998.7,N
1503138355.1,286046999.2,N
1503138356.0,286046999.2,N
1503138375.8,286046997.6,N
1503138395.7,286046994.9,P
1503138415.5,286046999.2,N
1503138435.3,286046998.4,N
1503138455.2,286046998.8,N
1503138475.9,286046996.6,N
1503138495.7,286046997.7,N
1503138515.5,286046996.8,N
1503138535.4,286046999.5,N
1503138555.2,286046999.2,N
1503138575.0,286046996.8,N
1503138575.9,286046996.8,N
1503138595.8,286046997.2,N
1503138615.6,286046997.4,N
1503138635.4,286046994.9,P
1503138655.3,286046999.1,N
1503138675.1,286046998.9,N
1503138695.8,286046998.2,N
1503138715.7,286046998.4,N
1503138735.5,286046998.2,N
1503138755.3,286046998.5,N
1503138775.2,286046996.9,N
1503138795.9,286046999.4,N
1503138815.7,286046998.4,N
1503138835.6,286046998.6,N
1503138855.4,286047000.8,N
1503138875.2,286047002.7,N
1503138895.0,286046999.8,N
1503138896.0,286046999.8,N
1503138915.8,286047002.6,N
1503138935.6,286047001.2,N
1503138955.4,286047001.1,N
1503138975.3,286047000.4,N
1503138995.1,286047002.3,N
1503139015.8,286047001.0,N
1503139035.7,286047001.2,N
1503139055.5,286047000.9,N
1503139075.3,286047002.2,N
1503139095.2,286047002.0,N
1503139115.9,286047001.2,N
1503139135.7,286047002.4,N
1503139155.6,286046999.7,N
1503139175.4,286047002.3,N
1503139195.2,286047001.0,N
1503139215.0,286046998.1,N
1503139215.9,286046998.1,N
1503139235.8,286047000.7,N
1503139255.6,286047002.6,N
1503139275.4,286047002.0,N
1503139295.3,286047002.6,N
1503139315.1,286047001.1,N
1503139335.8,286046998.7,N
1503139355.7,286046999.2,N
1503139375.5,286046997.0,N
1503139395.3,286046997.2,N
1503139415.2,286046999.5,N
1503139435.9,286046996.6,N
1503139455.7,286046997.5,N
1503139475.6,286046996.5,N
1503139495.4,286046998.5,N
1503139515.2,286047001.2,N
1503139535.0,286047000.7,N
1503139535.9,286047000.7,N
1503139555.8,286046996.5,N
1503139575.6,286046999.0,N
1503139595.4,286046996.6,N
1503139615.3,286046997.6,N
1503139635.1,286046996.8,N
1503139655.8,286046997.5,N
1503139675.7,286046997.5,N
1503139695.5,286046996.1,N
1503139715.3,286046995.5,N
1503139735.2,286046996.1,N
1503139755.9,286046996.4,N
1503139775.7,286046995.2,N
1503139795.6,286046996.2,N
1503139815.4,286046993.5,P
1503139835.2,286046995.5,N
1503139855.1,286046995.8,N
1503139856.0,286046995.8,N
1503139875.8,286046994.0,P
1503139895.6,286046998.5,N
1503139915.5,286046998.3,N
1503139935.3,286046998.7,N
1503139955.1,286046998.1,N
1503139975.9,286046999.4,N
1503139995.7,286047002.7,N
1503140015.5,286047003.1,N
1503140035.4,286047002.5,N
1503140055.2,286047002.8,N
1503140075.0,286047001.6,N
1503140075.9,286047001.6,N
1503140095.7,286047002.3,N
1503140115.6,286047001.2,N
1503140135.4,286047000.4,N
1503140155.2,286047000.1,N
1503140175.1,286047001.1,N
1503140176.0,286047001.1,N
1503140195.8,286046998.4,N
1503140215.6,286046995.0,N
1503140235.5,286046998.0,N
1503140255.3,286046995.8,N
1503140275.1,286046996.1,N
1503140295.9,286046995.5,N
1503140315.7,286046997.9,N
1503140335.5,286046994.9,N
1503140355.4,286046995.6,N
1503140375.2,286046996.7,N
1503140395.0,286046995.5,N
1503140395.9,286046995.5,N
